User: anonymous   Login
Location: UBC Liquid-Mirror Observatory
(49.2876°N, 122.5728°W)
Time: 04:08:19
(UTC-07:00)
Language:

Cosmos 1743 Rocket - Orbit

View from above orbital plane
View from above orbital plane
View from above satellite
View from above satellite

Ground track
Ground track

The orbit data is extracted from the following two-line orbital elements,

1 16720U 86034B   17145.44464619 +.00000073 +00000-0 +59618-5 0  9997
2 16720 082.5546 262.6937 0020428 172.2529 231.9198 14.83289184654801
Epoch (UTC): 25 May 2017 10:40:17
Eccentricity: 0.0020428
inclination: 82.5546°
perigee height: 604 km
apogee height: 633 km
right ascension of ascending node: 262.6937°
argument of perigee: 172.2529°
revolutions per day: 14.83289184
mean anomaly at epoch: 231.9198°
orbit number at epoch: 65480

The dashed part of the orbit path shows where the satellite is in the earth's shadow,  

DLR